• en France
  • Liste des pays
  • À 7 jours
  • Température de l'eau
  • Carte satellitaire
  • Carte météo
  • Widgets météo
  • user-avatar
    Se connecter

    Météo par heure à San Juan

    Ce jour, 24 Septembre, Lundi

    Heure Température Précipitation Vent Pression Humidité
    00:00 +21°C° 0 mm 5 m/s 705 mmHg 39%
    01:00 +21°C° 0 mm 5 m/s 705 mmHg 41%
    02:00 +20°C° 0 mm 5 m/s 705 mmHg 43%
    03:00 +19°C° 0 mm 5 m/s 705 mmHg 46%
    04:00 +17°C° 0 mm 5 m/s 705 mmHg 48%
    05:00 +17°C° 0 mm 5 m/s 705 mmHg 49%
    06:00 +17°C° 0 mm 5 m/s 706 mmHg 50%
    07:00 +16°C° 0 mm 6 m/s 706 mmHg 45%
    08:00 +17°C° 0 mm 5 m/s 706 mmHg 42%
    09:00 +20°C° 0 mm 5 m/s 706 mmHg 39%
    10:00 +21°C° 0 mm 4 m/s 705 mmHg 36%
    11:00 +22°C° 0 mm 4 m/s 705 mmHg 34%
    12:00 +23°C° 0 mm 4 m/s 704 mmHg 32%
    13:00 +25°C° 0 mm 3 m/s 704 mmHg 30%
    14:00 +25°C° 0 mm 3 m/s 704 mmHg 30%
    15:00 +25°C° 0 mm 3 m/s 703 mmHg 30%
    16:00 +26°C° 0 mm 4 m/s 703 mmHg 29%
    17:00 +24°C° 0 mm 3 m/s 703 mmHg 32%
    18:00 +22°C° 0 mm 3 m/s 704 mmHg 35%
    19:00 +21°C° 0 mm 2 m/s 704 mmHg 38%
    20:00 +21°C° 0 mm 2 m/s 704 mmHg 39%
    21:00 +22°C° 0 mm 1 m/s 705 mmHg 40%
    22:00 +21°C° 0 mm 1 m/s 705 mmHg 41%
    23:00 +21°C° 0 mm 1 m/s 704 mmHg 43%

    Demain, 25 Septembre, Mardi

    Heure Température Précipitation Vent Pression Humidité
    00:00 +21°C° 0 mm 1 m/s 704 mmHg 44%
    01:00 +20°C° 0 mm 1 m/s 704 mmHg 46%
    02:00 +20°C° 0 mm 1 m/s 704 mmHg 47%
    03:00 +19°C° 0 mm 1 m/s 703 mmHg 48%
    04:00 +19°C° 0 mm 1 m/s 703 mmHg 49%
    05:00 +20°C° 0 mm 1 m/s 703 mmHg 46%
    06:00 +21°C° 0 mm 1 m/s 704 mmHg 43%
    07:00 +21°C° 0 mm 1 m/s 704 mmHg 40%
    08:00 +23°C° 0 mm 1 m/s 704 mmHg 37%
    09:00 +24°C° 0 mm 2 m/s 704 mmHg 34%
    10:00 +26°C° 0 mm 2 m/s 704 mmHg 31%
    11:00 +27°C° 0 mm 2 m/s 703 mmHg 29%
    12:00 +28°C° 0 mm 2 m/s 703 mmHg 26%
    13:00 +29°C° 0 mm 2 m/s 702 mmHg 24%
    14:00 +29°C° 0 mm 3 m/s 702 mmHg 24%
    15:00 +29°C° 0 mm 3 m/s 701 mmHg 24%
    16:00 +29°C° 0 mm 4 m/s 701 mmHg 23%
    17:00 +28°C° 0 mm 4 m/s 702 mmHg 26%
    18:00 +26°C° 0 mm 3 m/s 702 mmHg 29%
    19:00 +25°C° 0 mm 3 m/s 703 mmHg 32%
    20:00 +25°C° 0 mm 3 m/s 703 mmHg 33%
    21:00 +24°C° 0 mm 3 m/s 703 mmHg 34%
    22:00 +24°C° 0 mm 2 m/s 703 mmHg 35%
    23:00 +23°C° 0 mm 2 m/s 703 mmHg 36%

    Après-demain, 26 Septembre, Mercredi

    Heure Température Précipitation Vent Pression Humidité
    00:00 +21°C° 0 mm 3 m/s 703 mmHg 37%
    01:00 +21°C° 0 mm 3 m/s 703 mmHg 38%
    02:00 +20°C° 0 mm 3 m/s 703 mmHg 41%
    03:00 +19°C° 0 mm 3 m/s 703 mmHg 44%
    04:00 +18°C° 0 mm 2 m/s 702 mmHg 47%
    05:00 +19°C° 0 mm 3 m/s 703 mmHg 46%
    06:00 +19°C° 0 mm 3 m/s 703 mmHg 45%
    07:00 +19°C° 0 mm 3 m/s 704 mmHg 44%
    08:00 +21°C° 0 mm 3 m/s 704 mmHg 41%
    09:00 +22°C° 0 mm 3 m/s 704 mmHg 38%
    10:00 +24°C° 0 mm 3 m/s 704 mmHg 35%
    11:00 +25°C° 0 mm 3 m/s 704 mmHg 33%
    12:00 +26°C° 0 mm 3 m/s 703 mmHg 31%
    13:00 +27°C° 0 mm 3 m/s 703 mmHg 28%
    14:00 +27°C° 0 mm 4 m/s 702 mmHg 29%
    15:00 +27°C° 0 mm 4 m/s 702 mmHg 30%
    16:00 +27°C° 0 mm 4 m/s 702 mmHg 30%
    17:00 +26°C° 0 mm 4 m/s 702 mmHg 37%
    18:00 +23°C° 0 mm 4 m/s 703 mmHg 43%
    19:00 +22°C° 0 mm 5 m/s 703 mmHg 50%
    20:00 +21°C° 0 mm 4 m/s 704 mmHg 58%
    21:00 +20°C° 0 mm 4 m/s 704 mmHg 65%
    22:00 +20°C° 0 mm 4 m/s 704 mmHg 73%
    23:00 +19°C° 0 mm 3 m/s 704 mmHg 75%

    27 Septembre, Jeudi

    Heure Température Précipitation Vent Pression Humidité
    00:00 +19°C° 0 mm 3 m/s 704 mmHg 77%
    01:00 +18°C° 0 mm 3 m/s 703 mmHg 80%
    02:00 +18°C° 0 mm 2 m/s 703 mmHg 80%
    03:00 +18°C° 0 mm 2 m/s 703 mmHg 81%
    04:00 +17°C° 0 mm 2 m/s 703 mmHg 82%
    05:00 +18°C° 0 mm 2 m/s 703 mmHg 80%
    06:00 +18°C° 0 mm 3 m/s 704 mmHg 77%
    07:00 +19°C° 0 mm 3 m/s 704 mmHg 74%
    08:00 +20°C° 0 mm 2 m/s 704 mmHg 69%
    09:00 +21°C° 0 mm 2 m/s 704 mmHg 63%
    10:00 +23°C° 0 mm 2 m/s 704 mmHg 58%
    11:00 +24°C° 0 mm 2 m/s 704 mmHg 53%
    12:00 +25°C° 0 mm 2 m/s 703 mmHg 48%
    13:00 +27°C° 0 mm 2 m/s 703 mmHg 43%
    14:00 +27°C° 0 mm 3 m/s 702 mmHg 42%
    15:00 +27°C° 0 mm 3 m/s 702 mmHg 41%
    16:00 +27°C° 0 mm 3 m/s 702 mmHg 41%
    17:00 +26°C° 0.1 mm 3 m/s 703 mmHg 46%
    18:00 +25°C° 0.1 mm 3 m/s 704 mmHg 51%
    19:00 +24°C° 0.1 mm 3 m/s 704 mmHg 56%
    20:00 +24°C° 0.1 mm 3 m/s 704 mmHg 59%
    21:00 +23°C° 0.1 mm 2 m/s 705 mmHg 61%
    22:00 +23°C° 0.1 mm 2 m/s 705 mmHg 63%
    23:00 +22°C° 0 mm 1 m/s 704 mmHg 67%

    28 Septembre, Vendredi

    Heure Température Précipitation Vent Pression Humidité
    00:00 +21°C° 0 mm 1 m/s 704 mmHg 70%
    01:00 +21°C° 0 mm 1 m/s 703 mmHg 73%
    02:00 +20°C° 0 mm 1 m/s 703 mmHg 74%
    03:00 +20°C° 0 mm 1 m/s 703 mmHg 75%
    04:00 +20°C° 0 mm 1 m/s 703 mmHg 75%
    05:00 +20°C° 0 mm 2 m/s 703 mmHg 71%
    06:00 +21°C° 0 mm 2 m/s 703 mmHg 66%
    07:00 +23°C° 0 mm 2 m/s 703 mmHg 62%
    08:00 +25°C° 0 mm 3 m/s 703 mmHg 53%
    09:00 +27°C° 0 mm 3 m/s 703 mmHg 45%
    10:00 +29°C° 0 mm 4 m/s 703 mmHg 37%
    11:00 +30°C° 0 mm 5 m/s 702 mmHg 31%
    12:00 +33°C° 0 mm 5 m/s 701 mmHg 25%
    13:00 +34°C° 0 mm 6 m/s 700 mmHg 20%
    14:00 +34°C° 0 mm 6 m/s 700 mmHg 20%
    15:00 +34°C° 0 mm 7 m/s 699 mmHg 21%
    16:00 +33°C° 0 mm 7 m/s 699 mmHg 21%
    17:00 +32°C° 0 mm 7 m/s 699 mmHg 27%
    18:00 +29°C° 0 mm 6 m/s 699 mmHg 33%
    19:00 +28°C° 0 mm 6 m/s 699 mmHg 38%
    20:00 +27°C° 0 mm 6 m/s 699 mmHg 42%
    21:00 +26°C° 0 mm 6 m/s 699 mmHg 45%
    22:00 +26°C° 0 mm 5 m/s 699 mmHg 49%
    23:00 +24°C° 0 mm 6 m/s 699 mmHg 51%

    29 Septembre, Samedi

    Heure Température Précipitation Vent Pression Humidité
    00:00 +24°C° 0 mm 6 m/s 698 mmHg 53%
    01:00 +23°C° 0 mm 6 m/s 698 mmHg 55%
    02:00 +23°C° 0 mm 6 m/s 698 mmHg 55%
    03:00 +23°C° 0 mm 6 m/s 698 mmHg 55%
    04:00 +22°C° 0 mm 6 m/s 698 mmHg 55%
    05:00 +24°C° 0 mm 7 m/s 698 mmHg 45%
    06:00 +26°C° 0 mm 8 m/s 699 mmHg 35%
    07:00 +27°C° 0 mm 9 m/s 699 mmHg 25%
    08:00 +29°C° 0 mm 10 m/s 699 mmHg 19%
    09:00 +33°C° 0 mm 11 m/s 699 mmHg 12%
    10:00 +36°C° 0 mm 12 m/s 700 mmHg 6%
    11:00 +37°C° 0 mm 13 m/s 699 mmHg 5%
    12:00 +38°C° 0 mm 15 m/s 699 mmHg 4%
    13:00 +40°C° 0 mm 16 m/s 699 mmHg 3%
    14:00 +38°C° 0 mm 15 m/s 698 mmHg 4%
    15:00 +37°C° 0 mm 15 m/s 698 mmHg 4%
    16:00 +36°C° 0 mm 14 m/s 698 mmHg 4%
    17:00 +33°C° 0 mm 11 m/s 699 mmHg 5%
    18:00 +31°C° 0 mm 8 m/s 699 mmHg 6%
    19:00 +29°C° 0 mm 5 m/s 700 mmHg 7%
    20:00 +27°C° 0 mm 4 m/s 700 mmHg 7%
    21:00 +26°C° 0 mm 4 m/s 701 mmHg 8%
    22:00 +25°C° 0 mm 3 m/s 701 mmHg 9%
    23:00 +23°C° 0 mm 4 m/s 701 mmHg 11%
    Voir plus